Regional Weather Roundup
Issued by NWS

Home | Current Version | Previous Version | Graphics & Text | Print | Product List | Glossary On
Versions: 1 2 3 4 5 6 7 8 9 10 11 12 13 14 15 16 17 18 19 20 21 22 23 24 25 26 27 28 29 30 31 32 33 34 35 36 37 38 39 40 41 42 43 44 45 46 47 48 49 50
417
ASUS43 KOAX 242102
RWRNE

WEATHER ROUNDUP FOR NEBRASKA
NATIONAL WEATHER SERVICE OMAHA NE
400 PM CDT WED MAY 24 2017

NOTES: SATELLITE DATA IS BEING USED TO AUGMENT CLOUD COVER ABOVE
       12000 FEET.
       "FAIR" INDICATES FEW OR NO CLOUDS BELOW 12,000 FEET WITH NO
       SIGNIFICANT WEATHER AND/OR OBSTRUCTIONS TO VISIBILITY.

  * THESE STATIONS DO NOT REPORT WEATHER SUCH AS RAIN...SNOW OR FOG.

NEZ001>004-019>022-054>056-242200-
NEBRASKA PANHANDLE

CITY           SKY/WX    TMP DP  RH WIND       PRES   REMARKS
SCOTTSBLUFF    SUNNY     81  43  26 SE7       29.53F
ALLIANCE       SUNNY     76  47  35 S15G21    29.56F
CHADRON        SUNNY     78  48  34 S14       29.47F
GORDON         FAIR      74  41  31 S15G21    29.55F
KIMBALL        CLOUDY    79  38  23 W10G18    29.60F
SIDNEY         SUNNY     75  48  38 S9G21     29.61F
$$

NEZ057>060-069>072-079>082-242200-
SOUTHWEST NEBRASKA

CITY           SKY/WX    TMP DP  RH WIND       PRES   REMARKS
NORTH PLATTE   SUNNY     69  44  40 SW9G17    29.65F
IMPERIAL       SUNNY     71  43  36 S14G22    29.64F
LEXINGTON      SUNNY     66  44  44 S6        29.69F
MCCOOK         SUNNY     71  41  33 S12       29.68F
$$

NEZ005>010-023>029-035>040-094-242200-
NORTH CENTRAL NEBRASKA

CITY           SKY/WX    TMP DP  RH WIND       PRES   REMARKS
VALENTINE      SUNNY     70  34  26 S17G28    29.61F
AINSWORTH      SUNNY     65  42  42 S12       29.64F
BROKEN BOW     SUNNY     66  43  43 SE8       29.68F
ORD            MOSUNNY   65  42  43 SW9       29.68F
$$

NEZ041-046>049-061>064-073>077-083>087-242200-
SOUTH CENTRAL NEBRASKA

CITY           SKY/WX    TMP DP  RH WIND       PRES   REMARKS
GRAND ISLAND   MOSUNNY   65  43  44 SW8       29.71F
AURORA         PTSUNNY   65  42  43 S6        29.71F
HASTINGS       SUNNY     64  42  44 VRB3      29.72F
HOLDREGE       SUNNY     64  40  42 SW7       29.71F
KEARNEY *      SUNNY     64  43  45 S6        29.71F
$$

NEZ011>018-030>034-042>045-242200-
NORTHEAST NEBRASKA

CITY           SKY/WX    TMP DP  RH WIND       PRES   REMARKS
NORFOLK        MOSUNNY   64  43  46 S8        29.70F
ALBION         SUNNY     66  40  39 N3        29.69F
BLAIR          CLOUDY    63  45  52 N8        29.70S
FREMONT        PTSUNNY   64  41  44 E3        29.71S
TEKAMAH        MOSUNNY   64  43  46 N8        29.69F
WAYNE          PTSUNNY   64  43  46 NE7       29.69F
$$

NEZ050>053-065>068-078-088>093-242200-
SOUTHEAST NEBRASKA

CITY           SKY/WX    TMP DP  RH WIND       PRES   REMARKS
LINCOLN        CLOUDY    67  44  43 VRB3      29.71F
OMAHA EPPLEY   PTSUNNY   66  42  41 NE3       29.69F
BEATRICE       PTSUNNY   65  44  48 N5        29.71S
FALLS CITY     CLOUDY    68  46  45 N8        29.68F
NEBRASKA CITY  MOSUNNY   66  38  34 NE9       29.69F
$$

NEZ044-045-051>053-067-242200-
OMAHA AREA

CITY           SKY/WX    TMP DP  RH WIND       PRES   REMARKS
OMAHA EPPLEY   PTSUNNY   66  42  41 NE3       29.69F
BLAIR          CLOUDY    63  45  52 N8        29.70S
FREMONT        PTSUNNY   64  41  44 E3        29.71S
OFFUTT AFB     PTSUNNY   65  45  48 NE5       29.69F
WAHOO          MOCLDY    66  43  42 CALM      29.70S
$$




USA.gov is the U.S. government's official web portal to all federal, state and local government web resources and services.